FW8327 Weather Reports


Display with metric or nautical units.
time (UTC)temp
F
wind
direction
speed
MPH
gust
MPH
rain 1hr
in
rain 24hr
in
rain mn
in
humidity
%
barometer
mb
20260831060621 73 156 0.0 0.0 0.00 0.00 0.00 93 1016.1
20260831060115 73 156 0.0 0.0 0.00 0.00 0.00 92 1016.2
20260831055614 73 156 0.0 0.0 0.00 0.00 0.00 92 1016.0
20260831055110 73 154 0.0 0.0 0.00 0.00 0.00 91 1016.0
20260831054609 73 154 0.0 0.0 0.00 0.00 0.00 91 1016.0
20260831054109 73 160 0.0 0.0 0.00 0.00 0.00 91 1016.2
20260831053608 74 160 0.0 0.0 0.00 0.00 0.00 90 1016.1
20260831053102 74 159 0.0 0.0 0.00 0.00 0.00 90 1016.0
20260831052601 74 155 0.0 0.0 0.00 0.00 0.00 90 1016.0
20260831052056 74 153 0.0 0.0 0.00 0.00 0.00 90 1015.8
20260831051554 74 147 0.0 0.0 0.00 0.00 0.00 91 1015.9
20260831051053 74 157 0.0 0.0 0.00 0.00 0.00 91 1015.8
20260831050547 74 151 0.0 0.0 0.00 0.00 0.00 91 1015.7
20260831050046 74 156 0.0 0.0 0.00 0.00 0.00 92 1015.9
20260831045545 73 157 0.0 0.0 0.00 0.00 0.00 91 1016.2
20260831045041 73 155 0.0 0.0 0.00 0.00 0.00 92 1016.0
20260831044536 73 156 0.0 0.0 0.00 0.00 0.00 92 1016.1
20260831044031 73 158 0.0 0.0 0.00 0.00 0.00 92 1016.0
20260831043531 73 154 0.0 0.0 0.00 0.00 0.00 92 1016.1
20260831043027 73 155 0.0 0.0 0.00 0.00 0.00 92 1016.0
20260831042526 73 154 0.0 0.0 0.00 0.00 0.00 93 1015.9
20260831042021 73 153 0.0 0.0 0.00 0.00 0.00 93 1016.0
20260831041516 73 166 0.0 0.0 0.00 0.00 0.00 93 1016.1
20260831041015 73 166 0.0 0.0 0.00 0.00 0.00 92 1015.9
20260831040510 73 166 0.0 0.0 0.00 0.00 0.00 92 1015.8
20260831040009 73 162 0.0 0.0 0.00 0.00 0.00 93 1015.9
20260831035502 74 162 0.0 0.0 0.00 0.00 0.00 92 1015.8
20260831034957 74 162 0.0 0.0 0.00 0.00 0.00 92 1015.8
20260831034451 74 158 0.0 0.0 0.00 0.00 0.00 92 1015.7
20260831033947 73 156 0.0 0.0 0.00 0.00 0.00 93 1015.9
20260831033442 73 153 0.0 0.0 0.00 0.00 0.00 93 1015.8
20260831032937 73 153 0.0 0.0 0.00 0.00 0.00 93 1016.0
20260831032432 73 153 0.0 0.0 0.00 0.00 0.00 93 1015.7
20260831031927 74 153 0.0 0.0 0.00 0.00 0.00 93 1015.7
20260831031426 74 153 0.0 0.0 0.00 0.00 0.00 93 1015.7
20260831030921 74 149 0.0 0.0 0.00 0.00 0.00 93 1015.7
20260831030420 74 148 0.0 0.0 0.00 0.00 0.00 92 1016.2
20260831025919 74 160 0.0 0.0 0.00 0.00 0.00 92 1015.9
20260831025418 74 160 0.0 0.0 0.00 0.00 0.00 92 1016.0
20260831024914 73 160 0.0 0.0 0.00 0.00 0.00 93 1016.3
20260831024413 73 160 0.0 0.0 0.00 0.00 0.00 94 1016.2
20260831023913 73 160 0.0 0.0 0.00 0.00 0.00 94 1015.9
20260831023411 73 160 0.0 0.0 0.00 0.00 0.00 94 1015.9
20260831022907 74 160 0.0 0.0 0.00 0.00 0.00 93 1016.0
20260831022406 74 159 0.0 0.0 0.00 0.00 0.00 93 1016.0
20260831021901 74 159 0.0 0.0 0.00 0.00 0.00 94 1015.9
20260831021400 74 159 0.0 0.0 0.00 0.00 0.00 94 1016.0
20260831020856 74 161 0.0 0.0 0.00 0.00 0.00 95 1015.9
20260831020355 75 160 0.0 0.0 0.00 0.00 0.00 95 1016.2
20260831015851 75 160 0.0 0.0 0.00 0.00 0.00 95 1016.3
20260831015346 75 156 0.0 0.0 0.00 0.00 0.00 94 1016.1
20260831014846 75 155 0.0 0.0 0.00 0.00 0.00 94 1016.3
20260831014341 75 155 0.0 0.0 0.00 0.00 0.00 95 1016.3
20260831013837 75 155 0.0 0.0 0.00 0.00 0.00 95 1016.3
20260831013332 75 155 0.0 0.0 0.00 0.00 0.00 95 1016.3
20260831012826 75 155 0.0 0.0 0.00 0.00 0.00 95 1016.3
20260831012322 75 155 0.0 0.0 0.00 0.00 0.00 95 1016.1
20260831011821 75 155 0.0 0.0 0.00 0.00 0.00 95 1015.9
20260831011316 75 155 0.0 0.0 0.00 0.00 0.00 95 1015.8
20260831010812 75 155 0.0 0.0 0.00 0.00 0.00 94 1016.0
20260831010307 75 155 0.0 0.0 0.00 0.00 0.00 94 1015.8
20260831005803 75 155 0.0 0.0 0.00 0.00 0.00 93 1016.0
20260831005258 76 155 0.0 0.0 0.00 0.00 0.00 93 1015.9
20260831004752 76 155 0.0 0.0 0.00 0.00 0.00 92 1015.8
20260831004248 76 155 0.0 0.0 0.00 0.00 0.00 91 1015.7
20260831003744 77 155 0.0 0.0 0.00 0.00 0.00 90 1015.4
20260831003240 77 155 0.0 0.0 0.00 0.00 0.00 90 1015.5
20260831002739 78 154 0.0 0.0 0.00 0.00 0.00 89 1015.6
20260831002238 78 156 0.0 0.0 0.00 0.00 0.00 87 1015.5
20260831001734 78 157 0.0 0.0 0.00 0.00 0.00 87 1015.7
20260831001229 78 157 0.0 0.0 0.00 0.00 0.00 86 1015.7
20260831000726 78 157 0.0 0.0 0.00 0.00 0.00 86 1015.5
20260831000221 79 157 0.0 0.0 0.00 0.00 0.00 85 1015.6
20260830235720 79 157 0.0 0.0 0.00 0.00 0.00 85 1015.7
20260830235215 79 157 0.0 0.0 0.00 0.00 0.00 84 1015.9
20260830234710 80 157 0.0 0.0 0.00 0.00 0.00 84 1015.8
20260830234206 80 157 0.0 0.0 0.00 0.00 0.00 84 1015.8
20260830233701 80 161 0.0 0.0 0.00 0.00 0.00 82 1015.9
20260830233157 81 179 0.0 0.0 0.00 0.00 0.00 82 1016.0
20260830232652 81 179 0.0 0.0 0.00 0.00 0.00 81 1015.9
20260830232148 82 179 0.0 0.0 0.00 0.00 0.00 81 1015.8
20260830231645 82 179 0.0 0.0 0.00 0.00 0.00 82 1015.9
20260830231144 82 179 0.0 0.0 0.00 0.00 0.00 80 1016.1
20260830230639 82 179 0.0 0.0 0.00 0.00 0.00 82 1015.9
20260830230139 82 179 0.0 0.0 0.00 0.00 0.00 82 1015.9
20260830225634 82 179 0.0 0.0 0.00 0.00 0.00 82 1016.0
20260830225128 82 179 0.0 0.0 0.00 0.00 0.00 82 1016.1
20260830224627 82 179 0.0 0.0 0.00 0.00 0.00 82 1016.4
20260830224123 82 179 0.0 0.0 0.00 0.00 0.00 80 1016.2
20260830223621 82 179 0.0 0.0 0.00 0.00 0.00 80 1016.3
20260830223120 82 179 0.0 0.0 0.00 0.00 0.00 79 1016.1
20260830222614 83 179 0.0 0.0 0.00 0.00 0.00 74 1016.2
20260830222105 83 168 0.0 0.0 0.00 0.00 0.00 74 1015.9
20260830221601 83 162 0.0 0.0 0.00 0.00 0.00 75 1016.1
20260830221057 83 174 0.0 0.0 0.00 0.00 0.00 75 1016.0
20260830220557 83 182 0.0 0.0 0.00 0.00 0.00 75 1015.8
20260830220055 83 162 0.0 0.0 0.00 0.00 0.00 74 1016.1
20260830215549 83 156 0.0 0.0 0.00 0.00 0.00 73 1015.9
20260830215043 83 164 0.0 0.0 0.00 0.00 0.00 74 1015.8
20260830214539 83 172 0.0 0.0 0.00 0.00 0.00 73 1015.8
20260830214033 83 152 0.0 0.0 0.00 0.00 0.00 71 1015.7
20260830213527 83 215 0.0 0.0 0.00 0.00 0.00 71 1015.8
20260830213023 84 195 0.0 0.0 0.00 0.00 0.00 73 1016.0
20260830212518 84 173 0.0 0.0 0.00 0.00 0.00 70 1015.7
20260830212013 85 168 0.0 0.0 0.00 0.00 0.00 70 1015.8
20260830211508 86 178 0.0 0.0 0.00 0.00 0.00 67 1015.7
20260830211003 86 136 0.0 0.0 0.00 0.00 0.00 67 1015.4
20260830210503 86 162 0.0 0.0 0.00 0.00 0.00 70 1015.4
20260830210001 84 205 0.0 0.0 0.00 0.00 0.00 69 1015.6
20260830205500 86 156 0.0 0.0 0.00 0.00 0.00 69 1015.5
20260830204955 85 159 0.0 0.0 0.00 0.00 0.00 71 1015.6
20260830204454 86 161 0.0 0.0 0.00 0.00 0.00 69 1015.5
20260830203949 86 160 0.0 0.0 0.00 0.00 0.00 70 1015.9
20260830203446 85 166 0.0 0.0 0.00 0.00 0.00 70 1016.1
20260830202939 85 138 0.0 0.0 0.00 0.00 0.00 70 1016.1
20260830202434 85 144 0.0 0.0 0.00 0.00 0.00 71 1016.1
20260830201930 84 160 0.0 0.0 0.00 0.00 0.00 71 1016.1
20260830201424 84 156 0.0 0.0 0.00 0.00 0.00 73 1016.3
20260830200920 82 144 0.0 0.0 0.00 0.00 0.00 75 1016.5
20260830200419 80 160 0.0 0.0 0.00 0.00 0.00 77 1016.4
20260830195909 81 146 0.0 0.0 0.00 0.00 0.00 76 1016.4
20260830195408 81 165 0.0 0.0 0.00 0.00 0.00 76 1016.6
20260830194906 81 149 0.0 0.0 0.00 0.00 0.00 74 1016.8
20260830194401 81 158 0.0 0.0 0.00 0.00 0.00 76 1016.5
20260830193855 80 166 0.0 0.0 0.00 0.00 0.00 79 1016.7
20260830193354 80 150 0.0 0.0 0.00 0.00 0.00 77 1016.7
20260830192850 80 128 0.0 0.0 0.00 0.00 0.00 75 1016.6
20260830192350 80 171 0.0 0.0 0.00 0.00 0.00 76 1016.8
20260830191846 79 148 0.0 0.0 0.00 0.00 0.00 76 1016.9
20260830191346 79 164 0.0 0.0 0.00 0.00 0.00 77 1016.5
20260830190841 78 136 0.0 0.0 0.00 0.00 0.00 76 1016.4
20260830190336 78 150 0.0 0.0 0.00 0.00 0.00 77 1016.5
20260830185835 78 169 0.0 0.0 0.00 0.00 0.00 77 1016.6
20260830185330 77 172 0.0 0.0 0.00 0.00 0.00 76 1016.8
20260830184825 78 145 0.0 0.0 0.00 0.00 0.00 76 1016.9
20260830184325 78 158 0.0 0.0 0.00 0.00 0.00 75 1016.9
20260830183819 78 141 0.0 0.0 0.00 0.00 0.00 79 1017.2
20260830183319 79 153 0.0 0.0 0.00 0.00 0.00 80 1017.2
20260830182815 79 168 0.0 0.0 0.00 0.00 0.00 79 1017.7
20260830182311 79 155 0.0 0.0 0.00 0.00 0.00 78 1017.7
20260830181807 79 165 0.0 0.0 0.00 0.00 0.00 77 1017.8
20260830181301 79 144 1.0 3.0 0.00 0.00 0.00 77 1017.8
20260830180801 79 145 0.0 0.0 0.00 0.00 0.00 78 1017.9
20260830180255 79 131 0.0 0.0 0.00 0.00 0.00 78 1017.9
20260830175749 79 157 0.0 0.0 0.00 0.00 0.00 78 1018.0
20260830175244 79 147 0.0 0.0 0.00 0.00 0.00 78 1018.2
20260830174738 79 161 0.0 0.0 0.00 0.00 0.00 77 1018.3
20260830174235 79 129 0.0 0.0 0.00 0.00 0.00 78 1018.3
20260830173734 78 149 0.0 0.0 0.00 0.00 0.00 79 1018.5
20260830173229 78 148 0.0 0.0 0.00 0.00 0.00 82 1018.4
20260830172726 78 164 0.0 0.0 0.00 0.00 0.00 80 1018.5
20260830172223 78 172 0.0 0.0 0.00 0.00 0.00 80 1018.5
20260830171718 78 129 0.0 0.0 0.00 0.00 0.00 81 1018.5
20260830171213 78 165 0.0 1.0 0.00 0.00 0.00 80 1018.5
20260830170708 78 148 0.0 0.0 0.00 0.00 0.00 80 1018.6
20260830170206 78 148 0.0 0.0 0.00 0.00 0.00 82 1018.9
20260830165701 78 163 0.0 0.0 0.00 0.00 0.00 81 1018.8
20260830165157 78 154 0.0 0.0 0.00 0.00 0.00 80 1019.0
20260830164653 78 153 0.0 0.0 0.00 0.00 0.00 80 1019.0
20260830164149 78 159 0.0 0.0 0.00 0.00 0.00 79 1019.0
20260830163645 78 158 0.0 0.0 0.00 0.00 0.00 81 1019.0
20260830163139 78 159 0.0 0.0 0.00 0.00 0.00 80 1018.9
20260830162634 78 148 0.0 0.0 0.00 0.00 0.00 81 1018.9
20260830162130 78 148 0.0 0.0 0.00 0.00 0.00 82 1019.3
20260830161625 78 162 0.0 0.0 0.00 0.00 0.00 82 1019.2
20260830161119 77 143 0.0 0.0 0.00 0.00 0.00 83 1019.0
20260830160616 77 154 0.0 0.0 0.00 0.00 0.00 84 1018.9
20260830160110 77 157 0.0 0.0 0.00 0.00 0.00 83 1019.3
20260830155607 76 156 0.0 0.0 0.00 0.00 0.00 85 1019.0
20260830155102 75 158 0.0 0.0 0.00 0.00 0.00 84 1019.1
20260830154556 74 157 0.0 0.0 0.00 0.00 0.00 86 1019.2
20260830154048 74 144 0.0 0.0 0.00 0.00 0.00 90 1019.0
20260830153543 74 144 0.0 0.0 0.00 0.00 0.00 91 1019.0
20260830153043 74 144 0.0 0.0 0.00 0.00 0.00 91 1018.7
20260830152537 74 148 0.0 0.0 0.00 0.00 0.00 89 1018.8
20260830152031 73 154 0.0 0.0 0.00 0.00 0.00 89 1018.7
20260830151530 73 153 0.0 0.0 0.00 0.00 0.00 89 1018.8
20260830151026 73 176 0.0 0.0 0.00 0.00 0.00 89 1018.9
20260830150525 73 175 0.0 0.0 0.00 0.00 0.00 89 1018.8
20260830150020 73 176 0.0 0.0 0.00 0.00 0.00 90 1018.8
20260830145519 74 189 0.0 0.0 0.00 0.00 0.00 89 1018.8
20260830145014 75 182 0.0 0.0 0.00 0.00 0.00 84 1018.5
20260830144510 75 187 0.0 0.0 0.00 0.00 0.00 82 1018.3
20260830144006 75 154 0.0 0.0 0.00 0.00 0.00 82 1018.4
20260830143501 75 175 0.0 0.0 0.00 0.00 0.00 83 1018.0
20260830142959 75 175 0.0 0.0 0.00 0.00 0.00 83 1018.0
20260830142455 76 172 0.0 0.0 0.00 0.00 0.00 83 1018.0
20260830141949 76 156 0.0 0.0 0.00 0.00 0.00 83 1017.8
20260830141445 76 169 0.0 0.0 0.00 0.00 0.00 83 1017.7
20260830140940 76 160 0.0 0.0 0.00 0.00 0.00 84 1017.7
20260830140435 76 155 0.0 0.0 0.00 0.00 0.00 83 1017.4
20260830135934 75 160 0.0 0.0 0.00 0.00 0.00 83 1017.8
20260830135430 75 162 0.0 0.0 0.00 0.00 0.00 84 1017.8
20260830134925 75 160 0.0 0.0 0.00 0.00 0.00 86 1017.3
20260830134421 74 155 0.0 0.0 0.00 0.00 0.00 86 1017.7
20260830133916 74 155 0.0 0.0 0.00 0.00 0.00 86 1017.7
20260830133412 74 157 0.0 0.0 0.00 0.00 0.00 85 1017.8
20260830132907 74 155 0.0 0.0 0.00 0.00 0.00 85 1017.6
20260830132358 74 159 0.0 0.0 0.00 0.00 0.00 85 1017.8
20260830131856 73 156 0.0 0.0 0.00 0.00 0.00 87 1017.6
20260830131351 72 154 0.0 0.0 0.00 0.00 0.00 87 1017.6
20260830130850 73 151 0.0 0.0 0.00 0.00 0.00 86 1017.6
20260830130346 74 162 0.0 0.0 0.00 0.00 0.00 85 1017.6
20260830125845 73 151 0.0 0.0 0.00 0.00 0.00 87 1017.2
20260830125341 72 151 0.0 0.0 0.00 0.00 0.00 87 1017.6
20260830124838 71 161 0.0 0.0 0.00 0.00 0.00 89 1017.6
20260830124333 71 150 0.0 0.0 0.00 0.00 0.00 89 1017.7
20260830123830 70 156 0.0 0.0 0.00 0.00 0.00 90 1017.4
20260830123326 70 159 0.0 0.0 0.00 0.00 0.00 91 1017.3
20260830122824 69 160 0.0 0.0 0.00 0.00 0.00 91 1017.4
20260830122319 68 143 0.0 0.0 0.00 0.00 0.00 92 1017.3
20260830121814 68 163 0.0 0.0 0.00 0.00 0.00 93 1017.4
20260830121313 68 153 0.0 0.0 0.00 0.00 0.00 93 1017.0
20260830120808 67 156 0.0 0.0 0.00 0.00 0.00 93 1017.1
20260830120304 67 151 0.0 0.0 0.00 0.00 0.00 93 1017.1
20260830115801 67 151 0.0 0.0 0.00 0.00 0.00 94 1017.2
20260830115256 67 141 0.0 0.0 0.00 0.00 0.00 94 1017.0
20260830114752 66 160 0.0 0.0 0.00 0.00 0.00 95 1017.2
20260830114248 66 160 0.0 0.0 0.00 0.00 0.00 95 1017.3
20260830113743 66 159 0.0 0.0 0.00 0.00 0.00 95 1017.2
20260830113238 66 158 0.0 0.0 0.00 0.00 0.00 94 1017.2
20260830112734 66 158 0.0 0.0 0.00 0.00 0.00 94 1017.1
20260830112230 66 158 0.0 0.0 0.00 0.00 0.00 94 1017.6
20260830111725 66 158 0.0 0.0 0.00 0.00 0.00 94 1017.4
20260830111221 66 158 0.0 0.0 0.00 0.00 0.00 94 1017.4
20260830110720 66 158 0.0 0.0 0.00 0.00 0.00 94 1017.2
20260830110218 66 158 0.0 0.0 0.00 0.00 0.00 94 1017.3
20260830105716 66 158 0.0 0.0 0.00 0.00 0.00 94 1017.3
20260830105212 66 158 0.0 0.0 0.00 0.00 0.00 94 1017.3
20260830104709 66 158 0.0 0.0 0.00 0.00 0.00 94 1017.3
20260830104205 66 158 0.0 0.0 0.00 0.00 0.00 95 1017.2
20260830103704 66 158 0.0 0.0 0.00 0.00 0.00 95 1017.3
20260830103200 66 158 0.0 0.0 0.00 0.00 0.00 95 1017.3
20260830102658 66 158 0.0 0.0 0.00 0.00 0.00 95 1017.3
20260830102154 66 158 0.0 0.0 0.00 0.00 0.00 95 1017.1
20260830101650 66 158 0.0 0.0 0.00 0.00 0.00 95 1017.6
20260830101145 66 158 0.0 0.0 0.00 0.00 0.00 95 1017.4
20260830100644 66 158 0.0 0.0 0.00 0.00 0.00 95 1017.3
20260830100138 66 158 0.0 0.0 0.00 0.00 0.00 95 1017.3
20260830095632 66 158 0.0 0.0 0.00 0.00 0.00 94 1017.2
20260830095129 66 158 0.0 0.0 0.00 0.00 0.00 94 1017.3
20260830094624 66 158 0.0 0.0 0.00 0.00 0.00 94 1017.1
20260830094120 66 158 0.0 0.0 0.00 0.00 0.00 94 1017.0
20260830093615 66 158 0.0 0.0 0.00 0.00 0.00 94 1017.2
20260830093111 66 157 0.0 0.0 0.00 0.00 0.00 94 1017.0
20260830092606 66 157 0.0 0.0 0.00 0.00 0.00 94 1017.0
20260830092103 66 153 0.0 0.0 0.00 0.00 0.00 94 1017.0
20260830091558 66 155 0.0 0.0 0.00 0.00 0.00 93 1017.2
20260830091056 66 152 0.0 0.0 0.00 0.00 0.00 94 1017.2
20260830090551 66 157 0.0 0.0 0.00 0.00 0.00 94 1017.0
20260830090047 66 151 0.0 0.0 0.00 0.00 0.00 93 1017.1
20260830085541 66 158 0.0 0.0 0.00 0.00 0.00 93 1016.7
20260830085037 66 154 0.0 0.0 0.00 0.00 0.00 93 1016.9
20260830084532 66 133 0.0 0.0 0.00 0.00 0.00 93 1016.9
20260830084027 66 160 0.0 0.0 0.00 0.00 0.00 93 1016.8
20260830083522 66 159 0.0 0.0 0.00 0.00 0.00 94 1016.9
20260830083016 66 157 0.0 0.0 0.00 0.00 0.00 94 1017.0
20260830082512 66 156 0.0 0.0 0.00 0.00 0.00 94 1017.1
20260830082007 66 151 0.0 0.0 0.00 0.00 0.00 94 1017.0
20260830081503 66 159 0.0 0.0 0.00 0.00 0.00 94 1017.2
20260830081001 66 155 0.0 0.0 0.00 0.00 0.00 94 1017.1
20260830080457 66 152 0.0 0.0 0.00 0.00 0.00 93 1017.1
20260830075956 66 153 0.0 0.0 0.00 0.00 0.00 93 1017.3
20260830075452 66 154 0.0 0.0 0.00 0.00 0.00 93 1017.2
20260830074947 66 154 0.0 0.0 0.00 0.00 0.00 93 1017.3
20260830074443 66 153 0.0 0.0 0.00 0.00 0.00 93 1017.2
20260830073938 66 161 0.0 0.0 0.00 0.00 0.00 93 1017.7
20260830073434 66 159 0.0 0.0 0.00 0.00 0.00 93 1017.3
20260830072929 66 158 0.0 0.0 0.00 0.00 0.00 93 1017.3
20260830072425 66 158 0.0 0.0 0.00 0.00 0.00 93 1017.3
20260830071924 66 158 0.0 0.0 0.00 0.00 0.00 93 1017.1
20260830071420 66 156 0.0 0.0 0.00 0.00 0.00 93 1017.3
20260830070918 66 156 0.0 0.0 0.00 0.00 0.00 92 1017.1
20260830070413 66 156 0.0 0.0 0.00 0.00 0.00 92 1017.2
20260830065912 66 155 0.0 0.0 0.00 0.00 0.00 92 1017.2
20260830065407 66 153 0.0 0.0 0.00 0.00 0.00 92 1017.4
20260830064904 66 159 0.0 0.0 0.00 0.00 0.00 92 1017.3
20260830064401 66 159 0.0 0.0 0.00 0.00 0.00 92 1017.3
20260830063854 66 153 0.0 0.0 0.00 0.00 0.00 93 1017.6
20260830063350 65 155 0.0 0.0 0.00 0.00 0.00 93 1017.7
20260830062849 65 156 0.0 0.0 0.00 0.00 0.00 94 1017.6
20260830062348 65 156 0.0 0.0 0.00 0.00 0.00 94 1017.8
20260830061843 65 156 0.0 0.0 0.00 0.00 0.00 95 1017.7
20260830061343 65 156 0.0 0.0 0.00 0.00 0.00 94 1018.0